{"data":{"norad_id":49286,"intl_designator":"2021-090H","name":"ONEWEB-0360","alt_names":[],"object_type":"PAYLOAD","status":"ACTIVE","operator":null,"country":"UK","launch_date":"2021-10-14","launch_site_code":"VOSTO","launch_vehicle":null,"mission":null,"orbit_class":"UNKNOWN","rcs_meters":null,"size_class":null,"mass_kg":null,"dimensions":null,"purposes":["comms"],"wikipedia_slug":null,"has_3d_model":false,"image_url":null,"decayed_at":null,"tle_current":{"epoch":"2026-05-24T21:50:27.559680Z","epoch_age_seconds":78935,"freshness":"FRESH","line1":"1 49286U 21090H   26144.91004120 -.00000034  00000+0 -11652-3 0  9991","line2":"2 49286  87.9175 279.0815 0001960 104.5957 255.5393 13.20772882226773","mean_motion":13.20772882,"eccentricity":0.000196,"inclination_deg":87.9175,"raan_deg":279.0815,"arg_perigee_deg":104.5957,"mean_anomaly_deg":255.5393,"bstar":-0.00011652,"rev_number":22677,"period_min":109.02707192318,"perigee_km":1180.2875516446,"apogee_km":1183.2510349116,"semimajor_km":7559.9062932781,"source":"CELESTRAK","updated_at":"2026-05-25T13:38:22.520566Z"}}}